When you browse on this site, cookies collect data to enhance your experience and personalize the content and advertising you see.
Visit our Privacy Policy to learn more. By continuing to use the site, you agree to this use of cookies and data.
  • In Austria
  • List of Countries
  • For 7 days
  • Water Temperature
  • Weather Map
  • News
  • Weather Widgets
  • user-avatar
    Login

    Hourly Weather Cochabamba

    Today, 20 October, Sunday

    Time Temperature Precipitation Wind Pressure Humidity
    00:00 +15°C° 0.3 mm 1 mps 556 mmHg 75%
    01:00 +15°C° 0.3 mm 1 mps 555 mmHg 77%
    02:00 +15°C° 0 mm 1 mps 555 mmHg 80%
    03:00 +15°C° 0.1 mm 1 mps 555 mmHg 80%
    04:00 +14°C° 0.1 mm 1 mps 554 mmHg 80%
    05:00 +13°C° 0.1 mm 0 mps 554 mmHg 81%
    06:00 +14°C° 0 mm 0 mps 555 mmHg 75%
    07:00 +15°C° 0 mm 0 mps 556 mmHg 69%
    08:00 +18°C° 0 mm 1 mps 557 mmHg 64%
    09:00 +19°C° 0 mm 1 mps 557 mmHg 56%
    10:00 +21°C° 0 mm 1 mps 557 mmHg 48%
    11:00 +23°C° 0 mm 2 mps 558 mmHg 40%
    12:00 +24°C° 0.1 mm 2 mps 557 mmHg 39%
    13:00 +24°C° 0.1 mm 2 mps 557 mmHg 37%
    14:00 +25°C° 0.1 mm 2 mps 557 mmHg 36%
    15:00 +24°C° 0.1 mm 3 mps 556 mmHg 40%
    16:00 +24°C° 0.1 mm 3 mps 555 mmHg 44%
    17:00 +22°C° 0.1 mm 3 mps 554 mmHg 49%
    18:00 +21°C° 0.1 mm 3 mps 554 mmHg 53%
    19:00 +20°C° 0.1 mm 3 mps 554 mmHg 57%
    20:00 +19°C° 0.1 mm 3 mps 554 mmHg 61%
    21:00 +19°C° 0 mm 2 mps 555 mmHg 62%
    22:00 +18°C° 0 mm 2 mps 555 mmHg 64%
    23:00 +19°C° 0 mm 1 mps 555 mmHg 65%

    Tomorrow, 21 October, Monday

    Time Temperature Precipitation Wind Pressure Humidity
    00:00 +18°C° 0 mm 1 mps 554 mmHg 66%
    01:00 +18°C° 0 mm 1 mps 554 mmHg 67%
    02:00 +15°C° 0 mm 0 mps 554 mmHg 68%
    03:00 +15°C° 0 mm 0 mps 554 mmHg 68%
    04:00 +15°C° 0 mm 0 mps 554 mmHg 69%
    05:00 +14°C° 0 mm 0 mps 554 mmHg 70%
    06:00 +16°C° 0 mm 1 mps 555 mmHg 68%
    07:00 +18°C° 0 mm 1 mps 555 mmHg 65%
    08:00 +19°C° 0 mm 1 mps 556 mmHg 63%
    09:00 +20°C° 0.1 mm 1 mps 557 mmHg 58%
    10:00 +21°C° 0.1 mm 1 mps 557 mmHg 53%
    11:00 +22°C° 0.1 mm 1 mps 557 mmHg 47%
    12:00 +23°C° 0.4 mm 2 mps 557 mmHg 45%
    13:00 +24°C° 0.4 mm 2 mps 557 mmHg 43%
    14:00 +24°C° 0.4 mm 2 mps 556 mmHg 41%
    15:00 +24°C° 0.2 mm 3 mps 556 mmHg 43%
    16:00 +22°C° 0.2 mm 4 mps 555 mmHg 46%
    17:00 +22°C° 0.2 mm 5 mps 555 mmHg 49%
    18:00 +20°C° 0.1 mm 4 mps 555 mmHg 56%
    19:00 +19°C° 0.1 mm 3 mps 554 mmHg 63%
    20:00 +18°C° 0.1 mm 2 mps 554 mmHg 70%
    21:00 +17°C° 0 mm 2 mps 554 mmHg 71%
    22:00 +17°C° 0 mm 2 mps 554 mmHg 73%
    23:00 +16°C° 0 mm 2 mps 555 mmHg 75%

    Day after tomorrow, 22 October, Tuesday

    Time Temperature Precipitation Wind Pressure Humidity
    00:00 +16°C° 0 mm 1 mps 555 mmHg 76%
    01:00 +16°C° 0 mm 1 mps 554 mmHg 77%
    02:00 +16°C° 0 mm 1 mps 554 mmHg 78%
    03:00 +15°C° 0 mm 1 mps 554 mmHg 78%
    04:00 +15°C° 0 mm 1 mps 554 mmHg 78%
    05:00 +15°C° 0 mm 1 mps 554 mmHg 78%
    06:00 +15°C° 0 mm 1 mps 555 mmHg 75%
    07:00 +16°C° 0 mm 1 mps 555 mmHg 72%
    08:00 +18°C° 0 mm 1 mps 556 mmHg 69%
    09:00 +19°C° 0 mm 1 mps 557 mmHg 61%
    10:00 +20°C° 0 mm 1 mps 557 mmHg 53%
    11:00 +21°C° 0 mm 2 mps 558 mmHg 46%
    12:00 +23°C° 0 mm 2 mps 558 mmHg 42%
    13:00 +24°C° 0 mm 2 mps 557 mmHg 38%
    14:00 +25°C° 0 mm 2 mps 557 mmHg 34%
    15:00 +24°C° 0 mm 3 mps 556 mmHg 38%
    16:00 +24°C° 0 mm 3 mps 556 mmHg 43%
    17:00 +22°C° 0 mm 4 mps 555 mmHg 47%
    18:00 +20°C° 0.1 mm 3 mps 555 mmHg 54%
    19:00 +19°C° 0.1 mm 2 mps 554 mmHg 61%
    20:00 +17°C° 0.1 mm 2 mps 554 mmHg 69%
    21:00 +18°C° 0 mm 1 mps 554 mmHg 71%
    22:00 +16°C° 0 mm 1 mps 554 mmHg 73%
    23:00 +16°C° 0 mm 1 mps 554 mmHg 75%

    23 October, Wednesday

    Time Temperature Precipitation Wind Pressure Humidity
    00:00 +16°C° 0 mm 1 mps 554 mmHg 75%
    01:00 +16°C° 0 mm 1 mps 553 mmHg 75%
    02:00 +15°C° 0 mm 1 mps 553 mmHg 75%
    03:00 +15°C° 0 mm 1 mps 553 mmHg 74%
    04:00 +14°C° 0 mm 1 mps 553 mmHg 74%
    05:00 +14°C° 0 mm 1 mps 552 mmHg 73%
    06:00 +15°C° 0 mm 1 mps 554 mmHg 66%
    07:00 +16°C° 0 mm 1 mps 555 mmHg 60%
    08:00 +18°C° 0 mm 1 mps 556 mmHg 53%
    09:00 +20°C° 0 mm 1 mps 556 mmHg 47%
    10:00 +22°C° 0 mm 1 mps 557 mmHg 40%
    11:00 +23°C° 0 mm 2 mps 558 mmHg 34%
    12:00 +24°C° 0.1 mm 2 mps 557 mmHg 33%
    13:00 +24°C° 0.1 mm 2 mps 557 mmHg 33%
    14:00 +25°C° 0.1 mm 3 mps 557 mmHg 33%
    15:00 +24°C° 0.1 mm 3 mps 556 mmHg 37%
    16:00 +22°C° 0.1 mm 4 mps 555 mmHg 42%
    17:00 +21°C° 0.1 mm 5 mps 554 mmHg 47%
    18:00 +20°C° 0 mm 4 mps 554 mmHg 54%
    19:00 +19°C° 0 mm 3 mps 554 mmHg 60%
    20:00 +17°C° 0 mm 2 mps 554 mmHg 66%
    21:00 +17°C° 0 mm 2 mps 554 mmHg 68%
    22:00 +18°C° 0 mm 1 mps 554 mmHg 70%
    23:00 +16°C° 0 mm 1 mps 554 mmHg 72%

    24 October, Thursday

    Time Temperature Precipitation Wind Pressure Humidity
    00:00 +16°C° 0 mm 1 mps 554 mmHg 74%
    01:00 +15°C° 0 mm 1 mps 553 mmHg 75%
    02:00 +15°C° 0 mm 1 mps 553 mmHg 77%
    03:00 +15°C° 0 mm 1 mps 553 mmHg 78%
    04:00 +15°C° 0 mm 1 mps 553 mmHg 78%
    05:00 +14°C° 0 mm 1 mps 553 mmHg 79%
    06:00 +15°C° 0 mm 1 mps 554 mmHg 75%
    07:00 +16°C° 0 mm 1 mps 555 mmHg 72%
    08:00 +16°C° 0 mm 1 mps 555 mmHg 68%
    09:00 +19°C° 0 mm 1 mps 556 mmHg 62%
    10:00 +20°C° 0 mm 1 mps 556 mmHg 56%
    11:00 +21°C° 0 mm 2 mps 557 mmHg 51%
    12:00 +21°C° 0.1 mm 2 mps 557 mmHg 48%
    13:00 +23°C° 0.1 mm 2 mps 557 mmHg 45%
    14:00 +24°C° 0.1 mm 2 mps 556 mmHg 43%
    15:00 +24°C° 0.1 mm 2 mps 556 mmHg 44%
    16:00 +24°C° 0.1 mm 2 mps 555 mmHg 46%
    17:00 +22°C° 0.1 mm 3 mps 555 mmHg 47%
    18:00 +21°C° 0.1 mm 2 mps 555 mmHg 53%
    19:00 +20°C° 0.1 mm 2 mps 555 mmHg 59%
    20:00 +19°C° 0.1 mm 1 mps 555 mmHg 65%
    21:00 +19°C° 0.1 mm 1 mps 555 mmHg 67%
    22:00 +17°C° 0.1 mm 2 mps 555 mmHg 70%
    23:00 +17°C° 0.1 mm 2 mps 555 mmHg 73%

    25 October, Friday

    Time Temperature Precipitation Wind Pressure Humidity
    00:00 +17°C° 0 mm 2 mps 555 mmHg 75%
    01:00 +16°C° 0 mm 2 mps 554 mmHg 76%
    02:00 +16°C° 0 mm 2 mps 554 mmHg 78%
    03:00 +16°C° 0 mm 1 mps 554 mmHg 77%
    04:00 +16°C° 0 mm 1 mps 554 mmHg 76%
    05:00 +16°C° 0 mm 1 mps 554 mmHg 75%
    06:00 +18°C° 0 mm 1 mps 555 mmHg 71%
    07:00 +18°C° 0 mm 1 mps 556 mmHg 66%
    08:00 +19°C° 0 mm 1 mps 556 mmHg 62%
    09:00 +20°C° 0.1 mm 1 mps 557 mmHg 57%
    10:00 +22°C° 0.1 mm 1 mps 557 mmHg 52%
    11:00 +23°C° 0.1 mm 2 mps 557 mmHg 47%
    12:00 +24°C° 0.2 mm 2 mps 557 mmHg 45%
    13:00 +25°C° 0.2 mm 3 mps 557 mmHg 44%
    14:00 +25°C° 0.2 mm 3 mps 556 mmHg 42%
    15:00 +25°C° 0.1 mm 3 mps 556 mmHg 44%
    16:00 +23°C° 0.1 mm 4 mps 555 mmHg 47%
    17:00 +22°C° 0.1 mm 4 mps 555 mmHg 49%
    18:00 +21°C° 0.5 mm 3 mps 554 mmHg 57%
    19:00 +19°C° 0.5 mm 2 mps 554 mmHg 65%
    20:00 +17°C° 0.5 mm 2 mps 553 mmHg 73%
    21:00 +18°C° 0 mm 1 mps 554 mmHg 74%
    22:00 +18°C° 0 mm 1 mps 554 mmHg 74%
    23:00 +18°C° 0 mm 1 mps 554 mmHg 74%
    Show more